TimeICT,TemperatureF,Dew PointF,Humidity,Sea Level PressureIn,VisibilityMPH,Wind Direction,Wind SpeedMPH,Gust SpeedMPH,PrecipitationIn,Events,Conditions,WindDirDegrees,DateUTC
12:00 AM,80.6,75.2,84,29.89,5.6,WNW,9.2,-,N/A,,Mostly Cloudy,290,2012-10-03 17:00:00
12:30 AM,80.6,75.2,84,29.86,5.6,WNW,10.4,-,N/A,,Mostly Cloudy,290,2012-10-03 17:30:00
1:00 AM,82,75,73,29.85,6,WNW,9.2,,,,Mist,290,2012-10-03 18:00:00
1:00 AM,80.6,73.4,79,29.86,5.6,WNW,9.2,-,N/A,,Mostly Cloudy,290,2012-10-03 18:00:00
1:30 AM,80.6,75.2,84,29.86,5.6,West,9.2,-,N/A,,Mostly Cloudy,280,2012-10-03 18:30:00
2:00 AM,78.8,75.2,89,29.86,5.6,WNW,5.8,-,N/A,,Mostly Cloudy,300,2012-10-03 19:00:00
2:30 AM,80.6,73.4,79,29.83,5.6,WNW,5.8,-,N/A,,Mostly Cloudy,290,2012-10-03 19:30:00
3:00 AM,80.6,75.2,84,29.83,5.6,WNW,9.2,-,N/A,,Mostly Cloudy,290,2012-10-03 20:00:00
3:30 AM,80.6,73.4,79,29.83,5.6,WNW,10.4,-,N/A,,Mostly Cloudy,290,2012-10-03 20:30:00
4:00 AM,80.6,73.4,79,29.83,5.6,WNW,5.8,-,N/A,,Mostly Cloudy,290,2012-10-03 21:00:00
5:30 AM,78.8,73.4,83,29.83,5.6,NNW,6.9,-,N/A,,Mostly Cloudy,330,2012-10-03 22:30:00
6:00 AM,78.8,73.4,83,29.83,5.6,NNW,5.8,-,N/A,,Mostly Cloudy,330,2012-10-03 23:00:00
6:30 AM,78.8,73.4,83,29.83,5.6,WNW,3.5,-,N/A,,Mostly Cloudy,300,2012-10-03 23:30:00
7:00 AM,80,74,77,29.81,6,NNW,5.8,,,,Scattered Clouds,340,2012-10-04 00:00:00
7:00 AM,78.8,73.4,83,29.86,5.6,NNW,5.8,-,N/A,,Mostly Cloudy,340,2012-10-04 00:00:00
7:30 AM,80.6,75.2,84,29.86,5.6,NW,6.9,-,N/A,,Mostly Cloudy,320,2012-10-04 00:30:00
8:00 AM,80.6,75.2,84,29.86,5.6,WNW,6.9,-,N/A,,Mostly Cloudy,300,2012-10-04 01:00:00
8:30 AM,80.6,75.2,84,29.89,6.2,WNW,8.1,-,N/A,,Mostly Cloudy,300,2012-10-04 01:30:00
9:00 AM,82.4,75.2,79,29.89,6.2,WNW,10.4,-,N/A,,Mostly Cloudy,290,2012-10-04 02:00:00
9:30 AM,84.2,75.2,74,29.89,6.2,West,13.8,-,N/A,,Mostly Cloudy,280,2012-10-04 02:30:00
10:00 AM,80.6,75.2,84,29.92,5.6,West,13.8,-,N/A,Rain,Light Rain,280,2012-10-04 03:00:00
10:30 AM,80.6,75.2,84,29.92,6.2,WNW,9.2,-,N/A,,Mostly Cloudy,300,2012-10-04 03:30:00
11:00 AM,82.4,75.2,79,29.89,5.0,West,13.8,-,N/A,Rain,Rain,280,2012-10-04 04:00:00
11:30 AM,80.6,73.4,79,29.89,6.2,WNW,9.2,-,N/A,,Mostly Cloudy,290,2012-10-04 04:30:00
12:00 PM,84.2,75.2,74,29.89,6.2,WNW,12.7,-,N/A,,Mostly Cloudy,300,2012-10-04 05:00:00
12:30 PM,84.2,75.2,74,29.86,6.2,West,12.7,-,N/A,,Mostly Cloudy,280,2012-10-04 05:30:00
1:00 PM,85,75,65,29.85,6,Calm,Calm,,,,Partly Cloudy,,2012-10-04 06:00:00
1:00 PM,84.2,75.2,74,29.86,6.2,WNW,13.8,-,N/A,,Mostly Cloudy,290,2012-10-04 06:00:00
1:30 PM,82.4,77.0,84,29.86,6.2,WNW,11.5,-,N/A,,Mostly Cloudy,300,2012-10-04 06:30:00
2:00 PM,84.2,77.0,79,29.83,6.2,WNW,17.3,-,N/A,,Mostly Cloudy,300,2012-10-04 07:00:00
2:30 PM,82.4,75.2,79,29.83,6.2,WNW,9.2,-,N/A,,Mostly Cloudy,290,2012-10-04 07:30:00
3:00 PM,84.2,77.0,79,29.80,6.2,WNW,11.5,-,N/A,,Mostly Cloudy,290,2012-10-04 08:00:00
3:30 PM,84.2,75.2,74,29.80,6.2,West,11.5,-,N/A,,Mostly Cloudy,270,2012-10-04 08:30:00
4:00 PM,84.2,73.4,70,29.80,6.2,WNW,15.0,-,N/A,,Mostly Cloudy,300,2012-10-04 09:00:00
4:30 PM,80.6,73.4,79,29.80,6.2,NW,8.1,-,N/A,,Mostly Cloudy,320,2012-10-04 09:30:00
5:00 PM,82.4,75.2,79,29.80,6.2,WNW,13.8,-,N/A,,Mostly Cloudy,290,2012-10-04 10:00:00
5:30 PM,80.6,75.2,84,29.80,6.2,WNW,11.5,-,N/A,,Mostly Cloudy,300,2012-10-04 10:30:00
6:00 PM,82.4,75.2,79,29.80,6.2,West,11.5,-,N/A,,Mostly Cloudy,280,2012-10-04 11:00:00
6:30 PM,82.4,75.2,79,29.80,6.2,NW,11.5,-,N/A,,Mostly Cloudy,310,2012-10-04 11:30:00
7:00 PM,83,77,76,29.78,6,WNW,8.1,,,,Scattered Clouds,300,2012-10-04 12:00:00
7:00 PM,80.6,75.2,84,29.83,6.2,WNW,11.5,-,N/A,,Mostly Cloudy,300,2012-10-04 12:00:00
7:30 PM,80.6,75.2,84,29.83,6.2,West,11.5,-,N/A,,Mostly Cloudy,280,2012-10-04 12:30:00
8:00 PM,80.6,73.4,79,29.86,6.2,WNW,8.1,-,N/A,,Mostly Cloudy,290,2012-10-04 13:00:00
8:30 PM,80.6,75.2,84,29.86,5.6,WNW,9.2,-,N/A,,Scattered Clouds,290,2012-10-04 13:30:00
9:00 PM,82.4,75.2,79,29.86,5.6,WNW,9.2,-,N/A,,Mostly Cloudy,290,2012-10-04 14:00:00
9:30 PM,80.6,75.2,84,29.89,5.6,NW,6.9,-,N/A,,Mostly Cloudy,310,2012-10-04 14:30:00
10:00 PM,80.6,75.2,84,29.89,5.6,NNW,5.8,-,N/A,,Mostly Cloudy,330,2012-10-04 15:00:00
10:30 PM,80.6,73.4,79,29.89,5.6,WNW,6.9,-,N/A,,Mostly Cloudy,290,2012-10-04 15:30:00
11:00 PM,80.6,73.4,79,29.89,5.6,WNW,9.2,-,N/A,,Mostly Cloudy,290,2012-10-04 16:00:00
11:30 PM,80.6,75.2,84,29.89,5.6,West,9.2,-,N/A,,Mostly Cloudy,280,2012-10-04 16:30:00